Year,Month,Day,Hour,Minute,Value (Times are PST for temperature in C)
2018,06,11,00,00,9.20
2018,06,11,00,01,9.20
2018,06,11,00,02,9.20
2018,06,11,00,03,9.20
2018,06,11,00,04,9.10
2018,06,11,00,05,9.10
2018,06,11,00,06,9.10
2018,06,11,00,07,9.00
2018,06,11,00,08,9.00
2018,06,11,00,09,9.00
2018,06,11,00,10,9.00
2018,06,11,00,11,8.90
2018,06,11,00,12,8.90
2018,06,11,00,13,8.90
2018,06,11,00,14,8.90
2018,06,11,00,15,9.00
2018,06,11,00,16,9.00
2018,06,11,00,17,9.00
2018,06,11,00,18,9.00
2018,06,11,00,19,9.00
2018,06,11,00,20,9.10
2018,06,11,00,21,9.10
2018,06,11,00,22,9.10
2018,06,11,00,23,9.10
2018,06,11,00,24,9.10
2018,06,11,00,25,9.10
2018,06,11,00,26,9.10
2018,06,11,00,27,9.20
2018,06,11,00,28,9.20
2018,06,11,00,29,9.20
2018,06,11,00,30,9.20
2018,06,11,00,31,9.20
2018,06,11,00,32,9.20
2018,06,11,00,33,9.20
2018,06,11,00,34,9.20
2018,06,11,00,35,9.20
2018,06,11,00,36,9.20
2018,06,11,00,37,9.20
2018,06,11,00,38,9.20
2018,06,11,00,39,9.20
2018,06,11,00,40,9.20
2018,06,11,00,41,9.20
2018,06,11,00,42,9.20
2018,06,11,00,43,9.20
2018,06,11,00,44,9.20
2018,06,11,00,45,9.20
2018,06,11,00,46,9.20
2018,06,11,00,47,9.20
2018,06,11,00,48,9.20
2018,06,11,00,49,9.20
2018,06,11,00,50,9.20
2018,06,11,00,51,9.20
2018,06,11,00,52,9.20
2018,06,11,00,53,9.20
2018,06,11,00,54,9.20
2018,06,11,00,55,9.20
2018,06,11,00,56,9.10
2018,06,11,00,57,9.10
2018,06,11,00,58,9.10
2018,06,11,00,59,9.10
2018,06,11,01,00,9.10
2018,06,11,01,01,9.10
2018,06,11,01,02,9.10
2018,06,11,01,03,9.10
2018,06,11,01,04,9.10
2018,06,11,01,05,9.10
2018,06,11,01,06,9.10
2018,06,11,01,07,9.10
2018,06,11,01,08,9.10
2018,06,11,01,09,9.10
2018,06,11,01,10,9.10
2018,06,11,01,11,9.10
2018,06,11,01,12,9.10
2018,06,11,01,13,9.10
2018,06,11,01,14,9.10
2018,06,11,01,15,9.10
2018,06,11,01,16,9.00
2018,06,11,01,17,9.00
2018,06,11,01,18,9.00
2018,06,11,01,19,9.00
2018,06,11,01,20,9.00
2018,06,11,01,21,9.00
2018,06,11,01,22,9.00
2018,06,11,01,23,9.00
2018,06,11,01,24,9.00
2018,06,11,01,25,8.90
2018,06,11,01,26,8.90
2018,06,11,01,27,8.90
2018,06,11,01,28,8.90
2018,06,11,01,29,8.90
2018,06,11,01,30,8.90
2018,06,11,01,31,8.90
2018,06,11,01,32,8.90
2018,06,11,01,33,8.90
2018,06,11,01,34,8.90
2018,06,11,01,35,8.90
2018,06,11,01,36,8.90
2018,06,11,01,37,8.90
2018,06,11,01,38,8.90
2018,06,11,01,39,8.90
2018,06,11,01,40,8.90
2018,06,11,01,41,8.90
2018,06,11,01,42,8.90
2018,06,11,01,43,8.90
2018,06,11,01,44,8.90
2018,06,11,01,45,8.90
2018,06,11,01,46,8.90
2018,06,11,01,47,8.90
2018,06,11,01,48,8.90
2018,06,11,01,49,8.90
2018,06,11,01,50,8.90
2018,06,11,01,51,8.90
2018,06,11,01,52,8.90
2018,06,11,01,53,8.90
2018,06,11,01,54,8.90
2018,06,11,01,55,8.90
2018,06,11,01,56,8.90
2018,06,11,01,57,8.90
2018,06,11,01,58,8.90
2018,06,11,01,59,8.90
2018,06,11,02,00,8.90
2018,06,11,02,01,8.90
2018,06,11,02,02,8.90
2018,06,11,02,03,8.90
2018,06,11,02,04,8.80
2018,06,11,02,05,8.80
2018,06,11,02,06,8.80
2018,06,11,02,07,8.80
2018,06,11,02,08,8.70
2018,06,11,02,09,8.60
2018,06,11,02,10,8.50
2018,06,11,02,11,8.40
2018,06,11,02,12,8.30
2018,06,11,02,13,8.30
2018,06,11,02,14,8.30
2018,06,11,02,15,8.30
2018,06,11,02,16,8.30
2018,06,11,02,17,8.30
2018,06,11,02,18,8.20
2018,06,11,02,19,8.20
2018,06,11,02,20,8.20
2018,06,11,02,21,8.10
2018,06,11,02,22,8.10
2018,06,11,02,23,8.00
2018,06,11,02,24,8.00
2018,06,11,02,25,7.90
2018,06,11,02,26,7.90
2018,06,11,02,27,7.80
2018,06,11,02,28,7.80
2018,06,11,02,29,7.80
2018,06,11,02,30,7.80
2018,06,11,02,31,7.90
2018,06,11,02,32,7.90
2018,06,11,02,33,7.90
2018,06,11,02,34,8.00
2018,06,11,02,35,8.00
2018,06,11,02,36,8.00
2018,06,11,02,37,8.10
2018,06,11,02,38,8.20
2018,06,11,02,39,8.20
2018,06,11,02,40,8.30
2018,06,11,02,41,8.30
2018,06,11,02,42,8.40
2018,06,11,02,43,8.40
2018,06,11,02,44,8.40
2018,06,11,02,45,8.40
2018,06,11,02,46,8.40
2018,06,11,02,47,8.50
2018,06,11,02,48,8.50
2018,06,11,02,49,8.50
2018,06,11,02,50,8.40
2018,06,11,02,51,8.40
2018,06,11,02,52,8.30
2018,06,11,02,53,8.30
2018,06,11,02,54,8.30
2018,06,11,02,55,8.20
2018,06,11,02,56,8.10
2018,06,11,02,57,8.00
2018,06,11,02,58,8.00
2018,06,11,02,59,7.90
2018,06,11,03,00,7.80
2018,06,11,03,01,7.60
2018,06,11,03,02,7.50
2018,06,11,03,03,7.40
2018,06,11,03,04,7.30
2018,06,11,03,05,7.30
2018,06,11,03,06,7.20
2018,06,11,03,07,7.10
2018,06,11,03,08,7.00
2018,06,11,03,09,7.00
2018,06,11,03,10,6.90
2018,06,11,03,11,6.90
2018,06,11,03,12,6.80
2018,06,11,03,13,6.80
2018,06,11,03,14,6.80
2018,06,11,03,15,6.80
2018,06,11,03,16,6.70
2018,06,11,03,17,6.70
2018,06,11,03,18,6.70
2018,06,11,03,19,6.60
2018,06,11,03,20,6.60
2018,06,11,03,21,6.50
2018,06,11,03,22,6.50
2018,06,11,03,23,6.40
2018,06,11,03,24,6.40
2018,06,11,03,25,6.40
2018,06,11,03,26,6.40
2018,06,11,03,27,6.40
2018,06,11,03,28,6.40
2018,06,11,03,29,6.40
2018,06,11,03,30,6.40
2018,06,11,03,31,6.40
2018,06,11,03,32,6.40
2018,06,11,03,33,6.40
2018,06,11,03,34,6.40
2018,06,11,03,35,6.40
2018,06,11,03,36,6.40
2018,06,11,03,37,6.40
2018,06,11,03,38,6.40
2018,06,11,03,39,6.40
2018,06,11,03,40,6.40
2018,06,11,03,41,6.40
2018,06,11,03,42,6.40
2018,06,11,03,43,6.40
2018,06,11,03,44,6.40
2018,06,11,03,45,6.30
2018,06,11,03,46,6.30
2018,06,11,03,47,6.30
2018,06,11,03,48,6.20
2018,06,11,03,49,6.20
2018,06,11,03,50,6.20
2018,06,11,03,51,6.20
2018,06,11,03,52,6.10
2018,06,11,03,53,6.10
2018,06,11,03,54,6.10
2018,06,11,03,55,6.10
2018,06,11,03,56,6.10
2018,06,11,03,57,6.10
2018,06,11,03,58,6.10
2018,06,11,03,59,6.10
2018,06,11,04,00,6.20
2018,06,11,04,01,6.10
2018,06,11,04,02,6.10
2018,06,11,04,03,6.10
2018,06,11,04,04,6.10
2018,06,11,04,05,6.00
2018,06,11,04,06,6.00
2018,06,11,04,07,6.00
2018,06,11,04,08,5.90
2018,06,11,04,09,5.90
2018,06,11,04,10,5.90
2018,06,11,04,11,5.90
2018,06,11,04,12,5.80
2018,06,11,04,13,5.80
2018,06,11,04,14,5.80
2018,06,11,04,15,5.80
2018,06,11,04,16,5.80
2018,06,11,04,17,5.70
2018,06,11,04,18,5.70
2018,06,11,04,19,5.70
2018,06,11,04,20,5.70
2018,06,11,04,21,5.70
2018,06,11,04,22,5.70
2018,06,11,04,23,5.70
2018,06,11,04,24,5.70
2018,06,11,04,25,5.70
2018,06,11,04,26,5.70
2018,06,11,04,27,5.70
2018,06,11,04,28,5.70
2018,06,11,04,29,5.70
2018,06,11,04,30,5.70
2018,06,11,04,31,5.70
2018,06,11,04,32,5.80
2018,06,11,04,33,5.80
2018,06,11,04,34,5.80
2018,06,11,04,35,5.70
2018,06,11,04,36,5.80
2018,06,11,04,37,5.80
2018,06,11,04,38,5.80
2018,06,11,04,39,5.80
2018,06,11,04,40,5.90
2018,06,11,04,41,5.90
2018,06,11,04,42,5.90
2018,06,11,04,43,5.80
2018,06,11,04,44,5.80
2018,06,11,04,45,5.70
2018,06,11,04,46,5.60
2018,06,11,04,47,5.60
2018,06,11,04,48,5.50
2018,06,11,04,49,5.40
2018,06,11,04,50,5.40
2018,06,11,04,51,5.30
2018,06,11,04,52,5.30
2018,06,11,04,53,5.30
2018,06,11,04,54,5.30
2018,06,11,04,55,5.20
2018,06,11,04,56,5.20
2018,06,11,04,57,5.20
2018,06,11,04,58,5.20
2018,06,11,04,59,5.20
2018,06,11,05,00,5.10
2018,06,11,05,01,5.10
2018,06,11,05,02,5.10
2018,06,11,05,03,5.10
2018,06,11,05,04,5.10
2018,06,11,05,05,5.10
2018,06,11,05,06,5.10
2018,06,11,05,07,5.10
2018,06,11,05,08,5.10
2018,06,11,05,09,5.10
2018,06,11,05,10,5.10
2018,06,11,05,11,5.10
2018,06,11,05,12,5.10
2018,06,11,05,13,5.10
2018,06,11,05,14,5.00
2018,06,11,05,15,5.00
2018,06,11,05,16,5.10
2018,06,11,05,17,5.10
2018,06,11,05,18,5.10
2018,06,11,05,19,5.00
2018,06,11,05,20,5.00
2018,06,11,05,21,5.00
2018,06,11,05,22,5.00
2018,06,11,05,23,4.90
2018,06,11,05,24,4.90
2018,06,11,05,25,4.90
2018,06,11,05,26,4.90
2018,06,11,05,27,4.90
2018,06,11,05,28,4.80
2018,06,11,05,29,4.80
2018,06,11,05,30,4.80
2018,06,11,05,31,4.80
2018,06,11,05,32,4.80
2018,06,11,05,33,4.80
2018,06,11,05,34,4.80
2018,06,11,05,35,4.80
2018,06,11,05,36,4.90
2018,06,11,05,37,4.90
2018,06,11,05,38,4.90
2018,06,11,05,39,5.00
2018,06,11,05,40,5.00
2018,06,11,05,41,5.00
2018,06,11,05,42,5.10
2018,06,11,05,43,5.10
2018,06,11,05,44,5.20
2018,06,11,05,45,5.20
2018,06,11,05,46,5.20
2018,06,11,05,47,5.30
2018,06,11,05,48,5.30
2018,06,11,05,49,5.30
2018,06,11,05,50,5.30
2018,06,11,05,51,5.30
2018,06,11,05,52,5.40
2018,06,11,05,53,5.40
2018,06,11,05,54,5.40
2018,06,11,05,55,5.50
2018,06,11,05,56,5.50
2018,06,11,05,57,5.50
2018,06,11,05,58,5.50
2018,06,11,05,59,5.50
2018,06,11,06,00,5.40
2018,06,11,06,01,5.50
2018,06,11,06,02,5.50
2018,06,11,06,03,5.50
2018,06,11,06,04,5.50
2018,06,11,06,05,5.50
2018,06,11,06,06,5.60
2018,06,11,06,07,5.60
2018,06,11,06,08,5.60
2018,06,11,06,09,5.60
2018,06,11,06,10,5.60
2018,06,11,06,11,5.70
2018,06,11,06,12,5.70
2018,06,11,06,13,5.70
2018,06,11,06,14,5.70
2018,06,11,06,15,5.70
2018,06,11,06,16,5.80
2018,06,11,06,17,5.80
2018,06,11,06,18,5.80
2018,06,11,06,19,5.90
2018,06,11,06,20,5.90
2018,06,11,06,21,6.00
2018,06,11,06,22,6.00
2018,06,11,06,23,6.10
2018,06,11,06,24,6.20
2018,06,11,06,25,6.20
2018,06,11,06,26,6.30
2018,06,11,06,27,6.30
2018,06,11,06,28,6.30
2018,06,11,06,29,6.30
2018,06,11,06,30,6.30
2018,06,11,06,31,6.30
2018,06,11,06,32,6.40
2018,06,11,06,33,6.40
2018,06,11,06,34,6.50
2018,06,11,06,35,6.50
2018,06,11,06,36,6.60
2018,06,11,06,37,6.60
2018,06,11,06,38,6.70
2018,06,11,06,39,6.80
2018,06,11,06,40,6.80
2018,06,11,06,41,6.90
2018,06,11,06,42,6.90
2018,06,11,06,43,7.00
2018,06,11,06,44,7.00
2018,06,11,06,45,7.10
2018,06,11,06,46,7.10
2018,06,11,06,47,7.10
2018,06,11,06,48,7.10
2018,06,11,06,49,7.10
2018,06,11,06,50,7.20
2018,06,11,06,51,7.20
2018,06,11,06,52,7.20
2018,06,11,06,53,7.30
2018,06,11,06,54,7.30
2018,06,11,06,55,7.30
2018,06,11,06,56,7.30
2018,06,11,06,57,7.30
2018,06,11,06,58,7.30
2018,06,11,06,59,7.30
2018,06,11,07,00,7.30
2018,06,11,07,01,7.40
2018,06,11,07,02,7.40
2018,06,11,07,03,7.40
2018,06,11,07,04,7.50
2018,06,11,07,05,7.50
2018,06,11,07,06,7.50
2018,06,11,07,07,7.60
2018,06,11,07,08,7.60
2018,06,11,07,09,7.60
2018,06,11,07,10,7.70
2018,06,11,07,11,7.70
2018,06,11,07,12,7.80
2018,06,11,07,13,7.80
2018,06,11,07,14,7.90
2018,06,11,07,15,7.90
2018,06,11,07,16,8.00
2018,06,11,07,17,8.00
2018,06,11,07,18,8.10
2018,06,11,07,19,8.20
2018,06,11,07,20,8.30
2018,06,11,07,21,8.40
2018,06,11,07,22,8.50
2018,06,11,07,23,8.60
2018,06,11,07,24,8.70
2018,06,11,07,25,8.80
2018,06,11,07,26,8.80
2018,06,11,07,27,8.90
2018,06,11,07,28,9.00
2018,06,11,07,29,9.10
2018,06,11,07,30,9.20
2018,06,11,07,31,9.30
2018,06,11,07,32,9.40
2018,06,11,07,33,9.50
2018,06,11,07,34,9.50
2018,06,11,07,35,9.60
2018,06,11,07,36,9.70
2018,06,11,07,37,9.80
2018,06,11,07,38,9.80
2018,06,11,07,39,9.90
2018,06,11,07,40,9.90
2018,06,11,07,41,10.00
2018,06,11,07,42,10.00
2018,06,11,07,43,10.10
2018,06,11,07,44,10.10
2018,06,11,07,45,10.10
2018,06,11,07,46,10.20
2018,06,11,07,47,10.20
2018,06,11,07,48,10.30
2018,06,11,07,49,10.30
2018,06,11,07,50,10.40
2018,06,11,07,51,10.50
2018,06,11,07,52,10.60
2018,06,11,07,53,10.60
2018,06,11,07,54,10.60
2018,06,11,07,55,10.60
2018,06,11,07,56,10.70
2018,06,11,07,57,10.70
2018,06,11,07,58,10.70
2018,06,11,07,59,10.70
2018,06,11,08,00,10.70
2018,06,11,08,01,10.70
2018,06,11,08,02,10.70
2018,06,11,08,03,10.80
2018,06,11,08,04,10.80
2018,06,11,08,05,10.90
2018,06,11,08,06,10.90
2018,06,11,08,07,10.90
2018,06,11,08,08,10.90
2018,06,11,08,09,10.90
2018,06,11,08,10,11.00
2018,06,11,08,11,11.00
2018,06,11,08,12,11.00
2018,06,11,08,13,11.10
2018,06,11,08,14,11.10
2018,06,11,08,15,11.10
2018,06,11,08,16,11.20
2018,06,11,08,17,11.30
2018,06,11,08,18,11.40
2018,06,11,08,19,11.40
2018,06,11,08,20,11.50
2018,06,11,08,21,11.60
2018,06,11,08,22,11.70
2018,06,11,08,23,11.80
2018,06,11,08,24,11.80
2018,06,11,08,25,11.90
2018,06,11,08,26,12.00
2018,06,11,08,27,12.10
2018,06,11,08,28,12.20
2018,06,11,08,29,12.30
2018,06,11,08,30,12.30
2018,06,11,08,31,12.30
2018,06,11,08,32,12.30
2018,06,11,08,33,12.20
2018,06,11,08,34,12.20
2018,06,11,08,35,12.20
2018,06,11,08,36,12.10
2018,06,11,08,37,12.20
2018,06,11,08,38,12.20
2018,06,11,08,39,12.20
2018,06,11,08,40,12.30
2018,06,11,08,41,12.30
2018,06,11,08,42,12.40
2018,06,11,08,43,12.50
2018,06,11,08,44,12.60
2018,06,11,08,45,12.60
2018,06,11,08,46,12.70
2018,06,11,08,47,12.70
2018,06,11,08,48,12.80
2018,06,11,08,49,12.80
2018,06,11,08,50,12.90
2018,06,11,08,51,13.00
2018,06,11,08,52,13.10
2018,06,11,08,53,13.10
2018,06,11,08,54,13.10
2018,06,11,08,55,13.20
2018,06,11,08,56,13.20
2018,06,11,08,57,13.20
2018,06,11,08,58,13.30
2018,06,11,08,59,13.30
2018,06,11,09,00,13.20
2018,06,11,09,01,13.20
2018,06,11,09,02,13.20
2018,06,11,09,03,13.10
2018,06,11,09,04,13.10
2018,06,11,09,05,13.10
2018,06,11,09,06,13.10
2018,06,11,09,07,13.10
2018,06,11,09,08,13.10
2018,06,11,09,09,13.10
2018,06,11,09,10,13.20
2018,06,11,09,11,13.20
2018,06,11,09,12,13.30
2018,06,11,09,13,13.30
2018,06,11,09,14,13.40
2018,06,11,09,15,13.40
2018,06,11,09,16,13.60
2018,06,11,09,17,13.70
2018,06,11,09,18,13.70
2018,06,11,09,19,13.80
2018,06,11,09,20,13.80
2018,06,11,09,21,13.80
2018,06,11,09,22,13.80
2018,06,11,09,23,13.70
2018,06,11,09,24,13.70
2018,06,11,09,25,13.60
2018,06,11,09,26,13.60
2018,06,11,09,27,13.60
2018,06,11,09,28,13.60
2018,06,11,09,29,13.60
2018,06,11,09,30,13.70
2018,06,11,09,31,13.70
2018,06,11,09,32,13.70
2018,06,11,09,33,13.70
2018,06,11,09,34,13.70
2018,06,11,09,35,13.70
2018,06,11,09,36,13.70
2018,06,11,09,37,13.70
2018,06,11,09,38,13.80
2018,06,11,09,39,13.80
2018,06,11,09,40,13.90
2018,06,11,09,41,14.00
2018,06,11,09,42,14.00
2018,06,11,09,43,14.10
2018,06,11,09,44,14.10
2018,06,11,09,45,14.10
2018,06,11,09,46,14.10
2018,06,11,09,47,14.10
2018,06,11,09,48,14.10
2018,06,11,09,49,14.10
2018,06,11,09,50,14.10
2018,06,11,09,51,14.10
2018,06,11,09,52,14.00
2018,06,11,09,53,14.00
2018,06,11,09,54,13.90
2018,06,11,09,55,13.80
2018,06,11,09,56,13.70
2018,06,11,09,57,13.70
2018,06,11,09,58,13.70
2018,06,11,09,59,13.70
2018,06,11,10,00,13.70
2018,06,11,10,01,13.70
2018,06,11,10,02,13.70
2018,06,11,10,03,13.80
2018,06,11,10,04,13.80
2018,06,11,10,05,13.90
2018,06,11,10,06,13.90
2018,06,11,10,07,13.90
2018,06,11,10,08,14.00
2018,06,11,10,09,14.00
2018,06,11,10,10,14.10
2018,06,11,10,11,14.20
2018,06,11,10,12,14.20
2018,06,11,10,13,14.30
2018,06,11,10,14,14.30
2018,06,11,10,15,14.40
2018,06,11,10,16,14.30
2018,06,11,10,17,14.30
2018,06,11,10,18,14.30
2018,06,11,10,19,14.30
2018,06,11,10,20,14.30
2018,06,11,10,21,14.30
2018,06,11,10,22,14.40
2018,06,11,10,23,14.40
2018,06,11,10,24,14.40
2018,06,11,10,25,14.50
2018,06,11,10,26,14.50
2018,06,11,10,27,14.50
2018,06,11,10,28,14.50
2018,06,11,10,29,14.50
2018,06,11,10,30,14.50
2018,06,11,10,31,14.60
2018,06,11,10,32,14.60
2018,06,11,10,33,14.70
2018,06,11,10,34,14.70
2018,06,11,10,35,14.80
2018,06,11,10,36,14.80
2018,06,11,10,37,14.70
2018,06,11,10,38,14.70
2018,06,11,10,39,14.70
2018,06,11,10,40,14.70
2018,06,11,10,41,14.70
2018,06,11,10,42,14.60
2018,06,11,10,43,14.60
2018,06,11,10,44,14.60
2018,06,11,10,45,14.70
2018,06,11,10,46,14.80
2018,06,11,10,47,14.80
2018,06,11,10,48,14.90
2018,06,11,10,49,14.90
2018,06,11,10,50,15.00
2018,06,11,10,51,15.00
2018,06,11,10,52,15.10
2018,06,11,10,53,15.10
2018,06,11,10,54,15.20
2018,06,11,10,55,15.20
2018,06,11,10,56,15.20
2018,06,11,10,57,15.30
2018,06,11,10,58,15.20
2018,06,11,10,59,15.20
2018,06,11,11,00,15.20
2018,06,11,11,01,15.10
2018,06,11,11,02,15.10
2018,06,11,11,03,15.00
2018,06,11,11,04,15.00
2018,06,11,11,05,15.00
2018,06,11,11,06,14.90
2018,06,11,11,07,14.90
2018,06,11,11,08,14.80
2018,06,11,11,09,14.80
2018,06,11,11,10,14.80
2018,06,11,11,11,14.80
2018,06,11,11,12,14.80
2018,06,11,11,13,14.80
2018,06,11,11,14,14.70
2018,06,11,11,15,14.70
2018,06,11,11,16,14.70
2018,06,11,11,17,14.70
2018,06,11,11,18,14.70
2018,06,11,11,19,14.70
2018,06,11,11,20,14.70
2018,06,11,11,21,14.70
2018,06,11,11,22,14.70
2018,06,11,11,23,14.70
2018,06,11,11,24,14.70
2018,06,11,11,25,14.70
2018,06,11,11,26,14.70
2018,06,11,11,27,14.70
2018,06,11,11,28,14.70
2018,06,11,11,29,14.70
2018,06,11,11,30,14.70
2018,06,11,11,31,14.80
2018,06,11,11,32,14.80
2018,06,11,11,33,14.90
2018,06,11,11,34,14.90
2018,06,11,11,35,15.00
2018,06,11,11,36,15.00
2018,06,11,11,37,15.00
2018,06,11,11,38,15.10
2018,06,11,11,39,15.20
2018,06,11,11,40,15.20
2018,06,11,11,41,15.20
2018,06,11,11,42,15.20
2018,06,11,11,43,15.10
2018,06,11,11,44,15.10
2018,06,11,11,45,15.10
2018,06,11,11,46,15.10
2018,06,11,11,47,15.10
2018,06,11,11,48,15.20
2018,06,11,11,49,15.30
2018,06,11,11,50,15.30
2018,06,11,11,51,15.30
2018,06,11,11,52,15.30
2018,06,11,11,53,15.30
2018,06,11,11,54,15.30
2018,06,11,11,55,15.40
2018,06,11,11,56,15.50
2018,06,11,11,57,15.50
2018,06,11,11,58,15.60
2018,06,11,11,59,15.60
2018,06,11,12,00,15.60
2018,06,11,12,01,15.60
2018,06,11,12,02,15.60
2018,06,11,12,03,15.60
2018,06,11,12,04,15.60
2018,06,11,12,05,15.70
2018,06,11,12,06,15.70
2018,06,11,12,07,15.70
2018,06,11,12,08,15.70
2018,06,11,12,09,15.70
2018,06,11,12,10,15.70
2018,06,11,12,11,15.70
2018,06,11,12,12,15.60
2018,06,11,12,13,15.60
2018,06,11,12,14,15.60
2018,06,11,12,15,15.60
2018,06,11,12,16,15.60
2018,06,11,12,17,15.60
2018,06,11,12,18,15.60
2018,06,11,12,19,15.70
2018,06,11,12,20,15.70
2018,06,11,12,21,15.70
2018,06,11,12,22,15.70
2018,06,11,12,23,15.60
2018,06,11,12,24,15.60
2018,06,11,12,25,15.50
2018,06,11,12,26,15.50
2018,06,11,12,27,15.40
2018,06,11,12,28,15.40
2018,06,11,12,29,15.40
2018,06,11,12,30,15.40
2018,06,11,12,31,15.40
2018,06,11,12,32,15.50
2018,06,11,12,33,15.50
2018,06,11,12,34,15.60
2018,06,11,12,35,15.60
2018,06,11,12,36,15.70
2018,06,11,12,37,15.80
2018,06,11,12,38,15.80
2018,06,11,12,39,15.90
2018,06,11,12,40,16.00
2018,06,11,12,41,16.00
2018,06,11,12,42,16.00
2018,06,11,12,43,16.10
2018,06,11,12,44,16.20
2018,06,11,12,45,16.20
2018,06,11,12,46,16.10
2018,06,11,12,47,16.10
2018,06,11,12,48,16.10
2018,06,11,12,49,16.10
2018,06,11,12,50,16.00
2018,06,11,12,51,16.10
2018,06,11,12,52,16.10
2018,06,11,12,53,16.00
2018,06,11,12,54,16.10
2018,06,11,12,55,16.10
2018,06,11,12,56,16.20
2018,06,11,12,57,16.20
2018,06,11,12,58,16.30
2018,06,11,12,59,16.30
2018,06,11,13,00,16.30
2018,06,11,13,01,16.30
2018,06,11,13,02,16.20
2018,06,11,13,03,16.20
2018,06,11,13,04,16.20
2018,06,11,13,05,16.20
2018,06,11,13,06,16.30
2018,06,11,13,07,16.40
2018,06,11,13,08,16.50
2018,06,11,13,09,16.60
2018,06,11,13,10,16.70
2018,06,11,13,11,16.70
2018,06,11,13,12,16.70
2018,06,11,13,13,16.70
2018,06,11,13,14,16.80
2018,06,11,13,15,16.80
2018,06,11,13,16,16.80
2018,06,11,13,17,16.80
2018,06,11,13,18,16.80
2018,06,11,13,19,16.80
2018,06,11,13,20,16.80
2018,06,11,13,21,16.80
2018,06,11,13,22,16.80
2018,06,11,13,23,16.80
2018,06,11,13,24,16.80
2018,06,11,13,25,16.70
2018,06,11,13,26,16.80
2018,06,11,13,27,16.80
2018,06,11,13,28,16.80
2018,06,11,13,29,16.80
2018,06,11,13,30,16.80
2018,06,11,13,31,16.90
2018,06,11,13,32,16.80
2018,06,11,13,33,16.80
2018,06,11,13,34,16.80
2018,06,11,13,35,16.80
2018,06,11,13,36,16.80
2018,06,11,13,37,16.80
2018,06,11,13,38,16.80
2018,06,11,13,39,16.80
2018,06,11,13,40,16.70
2018,06,11,13,41,16.60
2018,06,11,13,42,16.60
2018,06,11,13,43,16.60
2018,06,11,13,44,16.60
2018,06,11,13,45,16.50
2018,06,11,13,46,16.50
2018,06,11,13,47,16.50
2018,06,11,13,48,16.60
2018,06,11,13,49,16.50
2018,06,11,13,50,16.50
2018,06,11,13,51,16.50
2018,06,11,13,52,16.50
2018,06,11,13,53,16.50
2018,06,11,13,54,16.50
2018,06,11,13,55,16.50
2018,06,11,13,56,16.50
2018,06,11,13,57,16.50
2018,06,11,13,58,16.50
2018,06,11,13,59,16.60
2018,06,11,14,00,16.60
2018,06,11,14,01,16.60
2018,06,11,14,02,16.60
2018,06,11,14,03,16.60
2018,06,11,14,04,16.60
2018,06,11,14,05,16.60
2018,06,11,14,06,16.70
2018,06,11,14,07,16.80
2018,06,11,14,08,16.80
2018,06,11,14,09,16.90
2018,06,11,14,10,17.00
2018,06,11,14,11,17.10
2018,06,11,14,12,17.20
2018,06,11,14,13,17.30
2018,06,11,14,14,17.30
2018,06,11,14,15,17.40
2018,06,11,14,16,17.40
2018,06,11,14,17,17.40
2018,06,11,14,18,17.40
2018,06,11,14,19,17.30
2018,06,11,14,20,17.30
2018,06,11,14,21,17.30
2018,06,11,14,22,17.30
2018,06,11,14,23,17.30
2018,06,11,14,24,17.30
2018,06,11,14,25,17.30
2018,06,11,14,26,17.20
2018,06,11,14,27,17.20
2018,06,11,14,28,17.20
2018,06,11,14,29,17.20
2018,06,11,14,30,17.20
2018,06,11,14,31,17.20
2018,06,11,14,32,17.30
2018,06,11,14,33,17.30
2018,06,11,14,34,17.30
2018,06,11,14,35,17.30
2018,06,11,14,36,17.40
2018,06,11,14,37,17.50
2018,06,11,14,38,17.50
2018,06,11,14,39,17.50
2018,06,11,14,40,17.50
2018,06,11,14,41,17.50
2018,06,11,14,42,17.40
2018,06,11,14,43,17.40
2018,06,11,14,44,17.40
2018,06,11,14,45,17.40
2018,06,11,14,46,17.30
2018,06,11,14,47,17.30
2018,06,11,14,48,17.30
2018,06,11,14,49,17.30
2018,06,11,14,50,17.30
2018,06,11,14,51,17.30
2018,06,11,14,52,17.30
2018,06,11,14,53,17.30
2018,06,11,14,54,17.30
2018,06,11,14,55,17.40
2018,06,11,14,56,17.40
2018,06,11,14,57,17.40
2018,06,11,14,58,17.40
2018,06,11,14,59,17.40
2018,06,11,15,00,17.40
2018,06,11,15,01,17.40
2018,06,11,15,02,17.40
2018,06,11,15,03,17.40
2018,06,11,15,04,17.40
2018,06,11,15,05,17.30
2018,06,11,15,06,17.40
2018,06,11,15,07,17.40
2018,06,11,15,08,17.50
2018,06,11,15,09,17.60
2018,06,11,15,10,17.60
2018,06,11,15,11,17.70
2018,06,11,15,12,17.80
2018,06,11,15,13,17.80
2018,06,11,15,14,17.90
2018,06,11,15,15,18.00
2018,06,11,15,16,18.00
2018,06,11,15,17,18.00
2018,06,11,15,18,18.00
2018,06,11,15,19,18.00
2018,06,11,15,20,17.90
2018,06,11,15,21,17.80
2018,06,11,15,22,17.80
2018,06,11,15,23,17.80
2018,06,11,15,24,17.80
2018,06,11,15,25,17.80
2018,06,11,15,26,17.80
2018,06,11,15,27,17.80
2018,06,11,15,28,17.80
2018,06,11,15,29,17.90
2018,06,11,15,30,17.90
2018,06,11,15,31,18.00
2018,06,11,15,32,18.10
2018,06,11,15,33,18.10
2018,06,11,15,34,18.10
2018,06,11,15,35,18.10
2018,06,11,15,36,18.10
2018,06,11,15,37,18.10
2018,06,11,15,38,18.00
2018,06,11,15,39,18.00
2018,06,11,15,40,17.90
2018,06,11,15,41,17.90
2018,06,11,15,42,17.80
2018,06,11,15,43,17.70
2018,06,11,15,44,17.60
2018,06,11,15,45,17.50
2018,06,11,15,46,17.40
2018,06,11,15,47,17.30
2018,06,11,15,48,17.30
2018,06,11,15,49,17.20
2018,06,11,15,50,17.20
2018,06,11,15,51,17.20
2018,06,11,15,52,17.10
2018,06,11,15,53,17.10
2018,06,11,15,54,17.10
2018,06,11,15,55,17.10
2018,06,11,15,56,17.20
2018,06,11,15,57,17.20
2018,06,11,15,58,17.20
2018,06,11,15,59,17.30
2018,06,11,16,00,17.20
2018,06,11,16,01,17.20
2018,06,11,16,02,17.20
2018,06,11,16,03,17.30
2018,06,11,16,04,17.30
2018,06,11,16,05,17.40
2018,06,11,16,06,17.50
2018,06,11,16,07,17.60
2018,06,11,16,08,17.60
2018,06,11,16,09,17.70
2018,06,11,16,10,17.80
2018,06,11,16,11,17.90
2018,06,11,16,12,17.90
2018,06,11,16,13,17.90
2018,06,11,16,14,17.90
2018,06,11,16,15,17.90
2018,06,11,16,16,17.90
2018,06,11,16,17,18.00
2018,06,11,16,18,18.00
2018,06,11,16,19,18.00
2018,06,11,16,20,18.10
2018,06,11,16,21,18.10
2018,06,11,16,22,18.10
2018,06,11,16,23,18.10
2018,06,11,16,24,18.10
2018,06,11,16,25,18.00
2018,06,11,16,26,18.00
2018,06,11,16,27,17.90
2018,06,11,16,28,17.90
2018,06,11,16,29,17.80
2018,06,11,16,30,17.80
2018,06,11,16,31,17.90
2018,06,11,16,32,17.90
2018,06,11,16,33,18.00
2018,06,11,16,34,18.10
2018,06,11,16,35,18.20
2018,06,11,16,36,18.30
2018,06,11,16,37,18.30
2018,06,11,16,38,18.40
2018,06,11,16,39,18.50
2018,06,11,16,40,18.50
2018,06,11,16,41,18.50
2018,06,11,16,42,18.50
2018,06,11,16,43,18.50
2018,06,11,16,44,18.40
2018,06,11,16,45,18.40
2018,06,11,16,46,18.30
2018,06,11,16,47,18.30
2018,06,11,16,48,18.20
2018,06,11,16,49,18.10
2018,06,11,16,50,18.00
2018,06,11,16,51,18.00
2018,06,11,16,52,17.90
2018,06,11,16,53,17.90
2018,06,11,16,54,17.80
2018,06,11,16,55,17.80
2018,06,11,16,56,17.70
2018,06,11,16,57,17.70
2018,06,11,16,58,17.60
2018,06,11,16,59,17.60
2018,06,11,17,00,17.50
2018,06,11,17,01,17.50
2018,06,11,17,02,17.60
2018,06,11,17,03,17.60
2018,06,11,17,04,17.60
2018,06,11,17,05,17.60
2018,06,11,17,06,17.60
2018,06,11,17,07,17.60
2018,06,11,17,08,17.60
2018,06,11,17,09,17.70
2018,06,11,17,10,17.70
2018,06,11,17,11,17.70
2018,06,11,17,12,17.70
2018,06,11,17,13,17.60
2018,06,11,17,14,17.60
2018,06,11,17,15,17.50
2018,06,11,17,16,17.40
2018,06,11,17,17,17.40
2018,06,11,17,18,17.30
2018,06,11,17,19,17.30
2018,06,11,17,20,17.30
2018,06,11,17,21,17.20
2018,06,11,17,22,17.20
2018,06,11,17,23,17.20
2018,06,11,17,24,17.20
2018,06,11,17,25,17.20
2018,06,11,17,26,17.20
2018,06,11,17,27,17.20
2018,06,11,17,28,17.20
2018,06,11,17,29,17.20
2018,06,11,17,30,17.20
2018,06,11,17,31,17.20
2018,06,11,17,32,17.30
2018,06,11,17,33,17.30
2018,06,11,17,34,17.30
2018,06,11,17,35,17.40
2018,06,11,17,36,17.40
2018,06,11,17,37,17.50
2018,06,11,17,38,17.60
2018,06,11,17,39,17.70